Location: N�rnberg
(49.4489°N, 11.0797°E)
Time: 03:44:40
(UTC+02:00)

ISS - Pass Details

Date: 09 January 2018
Orbit: 401 x 409 km, 51.6° (Epoch: 20 August)

Event Time Altitude Azimuth Distance (km) Brightness Sun altitude
Maximum altitude 06:00:15 71° 13° (NNE) 450 -3.7 -20.2°
Exits shadow 06:00:15 71° 13° (NNE) 450 -3.7 -20.2°
Drops below altitude 10° 06:03:39 10° 98° (E) 1,512 0.3 -19.6°
Enters shadow 06:57:06 -74° 297° (WNW) 12,663 3.7 -11.3°
